Regional Weather Roundup
Issued by NWS

Home | Current Version | Previous Version | Graphics & Text | Print | Product List | Glossary On
Versions: 1 2 3 4 5 6 7 8 9 10 11 12 13 14 15 16 17 18 19 20 21 22 23 24 25 26 27 28 29 30 31 32 33 34 35 36 37 38 39 40 41 42 43 44 45 46 47 48 49 50
746
ASUS43 KTOP 252259
RWRKS

WEATHER ROUNDUP FOR KANSAS
NATIONAL WEATHER SERVICE GOODLAND KS
600 PM CDT TUE JUL 25 2017

NOTE:  "FAIR" INDICATES FEW OR NO CLOUDS BELOW 12,000 FEET WITH NO
SIGNIFICANT WEATHER AND/OR OBSTRUCTIONS TO VISIBILITY.

KSZ001>006-013>018-027>032-041>047-260000-
NORTHWEST KANSAS

CITY           SKY/WX    TMP DP  RH WIND       PRES   REMARKS
GOODLAND       SUNNY     97  62  31 SE20G28   29.93F HX  98
HAYS           SUNNY     99  68  36 S24       29.91F HX 104
HILL CITY      SUNNY    100  65  31 S17G28    29.90F HX 103
RUSSELL        MOSUNNY   98  65  33 S18G28    29.92F HX 101
$$

KSZ061>065-074>080-084>089-260000-
SOUTHWEST KANSAS

CITY           SKY/WX    TMP DP  RH WIND       PRES   REMARKS
DODGE CITY     SUNNY     99  63  30 S23G30    29.95F HX 101
ELKHART          N/A     97  57  26 SE15        N/A  HX  96
GARDEN CITY    SUNNY     99  62  29 S18G29    29.94F HX 100
GREAT BEND     MOSUNNY   99  67  35 S20       29.94  HX 103
LIBERAL        SUNNY    100  61  27 S16G26    29.96F HX 101
$$

KSZ066>073-081>083-090>101-260000-
SOUTHEAST KANSAS

CITY           SKY/WX    TMP DP  RH WIND       PRES   REMARKS
CHANUTE        MOSUNNY   95  69  42 S14       30.01F HX 100
COFFEYVILLE    MOSUNNY   94  72  48 SE16      30.01F HX 102
HUTCHINSON     SUNNY     99  61  28 SE14      29.95F HX  99
MEDICINE LODGE   N/A    100  63  29 S12       29.93F HX 102
PARSONS        SUNNY     93  71  48 S5        30.02F HX 100
WICHITA INTL   MOSUNNY   97  68  38 SE21      29.96F HX 102
WICHITA JABRA  SUNNY     96  68  39 S17       29.97F HX 101
WICHITA MCCONL SUNNY     97  64  34 S17       29.97F HX  99
WINFIELD       SUNNY     97  66  36 S13       29.99F HX 100
$$

KSZ007>012-019>026-033>040-048>060-102>105-260000-
NORTHEAST KANSAS

CITY           SKY/WX    TMP DP  RH WIND       PRES   REMARKS
CONCORDIA      SUNNY     95  63  34 S14       29.95F HX  96
EMPORIA        SUNNY     93  70  46 S14       30.00F HX  99
LAWRENCE       MOSUNNY   94  73  50 SE12      30.00F HX 103
MANHATTAN      MOSUNNY   96  71  44 SE17      29.96F HX 103
OLATHE IND     SUNNY     92  71  50 S8        30.03F HX  98
OLATHE EXE     SUNNY     90  73  57 S9        30.03F HX  98
SALINA         MOSUNNY  100  63  29 S20G26    29.94F HX 102
TOPEKA BILLARD MOSUNNY   93  76  57 SE9       29.99F HX 105
TOPEKA FORBES  MOSUNNY   94  73  50 SE13      30.00F HX 103
$$




USA.gov is the U.S. government's official web portal to all federal, state and local government web resources and services.